| time (UTC) | temp F | wind direction | speed MPH | gust MPH | rain 1hr in | rain 24hr in | rain mn in | humidity % | barometer mb |
| 20260505091525 | 37 | 138 | 0.0 | 0.0 | 0.00 | 0.02 | 0.00 | 92 | 1013.6 |
| 20260505090012 | 37 | 137 | 0.0 | 0.0 | 0.00 | 0.02 | 0.00 | 92 | 1013.5 |
| 20260505084535 | 37 | 138 | 0.0 | 0.0 | 0.00 | 0.02 | 0.00 | 92 | 1013.5 |
| 20260505083021 | 37 | 138 | 0.0 | 0.0 | 0.00 | 0.02 | 0.00 | 92 | 1013.4 |
| 20260505081524 | 38 | 138 | 0.0 | 0.0 | 0.00 | 0.02 | 0.00 | 92 | 1013.3 |
| 20260505080026 | 38 | 126 | 0.0 | 0.0 | 0.00 | 0.02 | 0.00 | 92 | 1013.2 |
| 20260505074514 | 38 | 126 | 0.0 | 0.0 | 0.00 | 0.02 | 0.00 | 92 | 1013.0 |
| 20260505073017 | 39 | 126 | 0.0 | 0.0 | 0.00 | 0.02 | 0.00 | 92 | 1012.9 |
| 20260505071521 | 39 | 126 | 0.0 | 0.0 | 0.00 | 0.02 | 0.00 | 92 | 1012.7 |
| 20260505070033 | 39 | 125 | 0.0 | 0.0 | 0.00 | 0.02 | 0.00 | 92 | 1012.8 |
| 20260505064526 | 40 | 126 | 0.0 | 0.0 | 0.00 | 0.02 | 0.00 | 91 | 1012.8 |
| 20260505063014 | 40 | 126 | 0.0 | 0.0 | 0.00 | 0.02 | 0.00 | 91 | 1012.9 |
| 20260505061522 | 41 | 127 | 0.0 | 0.0 | 0.00 | 0.02 | 0.00 | 92 | 1012.8 |
| 20260505060032 | 41 | 127 | 0.0 | 0.0 | 0.00 | 0.02 | 0.00 | 91 | 1012.6 |
| 20260505054528 | 41 | 127 | 0.0 | 0.0 | 0.00 | 0.02 | 0.00 | 91 | 1012.6 |
| 20260505053011 | 42 | 278 | 0.0 | 1.0 | 0.00 | 0.02 | 0.00 | 91 | 1012.5 |
| 20260505051518 | 43 | 278 | 0.0 | 1.0 | 0.00 | 0.02 | 0.00 | 91 | 1012.6 |
| 20260505041512 | 44 | 349 | 0.0 | 1.0 | 0.00 | 0.02 | 0.00 | 90 | 1012.4 |
| 20260505040017 | 44 | 349 | 0.0 | 0.0 | 0.00 | 0.02 | 0.00 | 91 | 1012.3 |
| 20260505034525 | 44 | 349 | 0.0 | 1.0 | 0.00 | 0.02 | 0.02 | 91 | 1012.3 |
| 20260505033026 | 43 | 349 | 0.0 | 2.0 | 0.00 | 0.02 | 0.02 | 89 | 1012.5 |
| 20260505031526 | 44 | 155 | 0.0 | 0.0 | 0.00 | 0.02 | 0.02 | 90 | 1012.4 |
| 20260505030014 | 44 | 212 | 0.0 | 0.0 | 0.00 | 0.02 | 0.02 | 89 | 1012.5 |
| 20260505024518 | 45 | 212 | 0.0 | 0.0 | 0.00 | 0.02 | 0.02 | 89 | 1012.4 |
| 20260505023022 | 45 | 212 | 0.0 | 0.0 | 0.00 | 0.02 | 0.02 | 88 | 1012.3 |
| 20260505021524 | 46 | 212 | 0.0 | 1.0 | 0.00 | 0.02 | 0.02 | 88 | 1012.3 |
| 20260505020028 | 47 | 92 | 0.0 | 1.0 | 0.00 | 0.02 | 0.02 | 88 | 1012.1 |
| 20260505014514 | 47 | 115 | 0.0 | 2.0 | 0.00 | 0.02 | 0.02 | 87 | 1012.3 |
| 20260505013019 | 48 | 289 | 0.0 | 4.0 | 0.00 | 0.02 | 0.02 | 86 | 1012.1 |
| 20260505011544 | 50 | 121 | 0.0 | 2.0 | 0.00 | 0.02 | 0.02 | 86 | 1012.0 |
| 20260505010026 | 51 | 261 | 0.0 | 0.0 | 0.00 | 0.02 | 0.02 | 84 | 1011.9 |
| 20260505004526 | 52 | 261 | 0.0 | 0.0 | 0.00 | 0.02 | 0.02 | 83 | 1011.8 |
| 20260505003015 | 54 | 131 | 0.0 | 0.0 | 0.00 | 0.02 | 0.02 | 82 | 1011.5 |
| 20260505001518 | 56 | 131 | 0.0 | 0.0 | 0.00 | 0.02 | 0.02 | 77 | 1011.4 |
| 20260505000028 | 58 | 197 | 0.0 | 0.0 | 0.00 | 0.02 | 0.02 | 74 | 1011.3 |
| 20260504234529 | 62 | 260 | 0.0 | 0.0 | 0.00 | 0.02 | 0.02 | 66 | 1011.3 |
| 20260504233028 | 66 | 269 | 0.0 | 0.0 | 0.00 | 0.02 | 0.02 | 61 | 1011.4 |
| 20260504231516 | 71 | 278 | 1.0 | 3.0 | 0.00 | 0.02 | 0.02 | 44 | 1011.2 |
| 20260504230020 | 71 | 279 | 0.0 | 3.0 | 0.00 | 0.02 | 0.02 | 49 | 1011.1 |
| 20260504224529 | 69 | 162 | 1.0 | 5.0 | 0.00 | 0.02 | 0.02 | 47 | 1011.3 |
| 20260504223027 | 69 | 36 | 1.0 | 4.0 | 0.00 | 0.02 | 0.02 | 57 | 1011.3 |
| 20260504221526 | 68 | 75 | 3.0 | 6.0 | 0.00 | 0.02 | 0.02 | 57 | 1011.4 |
| 20260504220018 | 70 | 346 | 1.0 | 2.0 | 0.00 | 0.02 | 0.02 | 53 | 1011.6 |
| 20260504214522 | 68 | 110 | 3.0 | 5.0 | 0.00 | 0.02 | 0.02 | 56 | 1011.6 |
| 20260504213027 | 67 | 120 | 2.0 | 7.0 | 0.00 | 0.02 | 0.02 | 57 | 1011.7 |
| 20260504211527 | 67 | 266 | 2.0 | 4.0 | 0.02 | 0.02 | 0.02 | 54 | 1011.6 |
| 20260504210028 | 64 | 309 | 3.0 | 7.0 | 0.02 | 0.02 | 0.02 | 60 | 1011.6 |
| 20260504204520 | 61 | 359 | 2.0 | 9.0 | 0.02 | 0.02 | 0.02 | 68 | 1011.8 |
| 20260504203022 | 61 | 9 | 6.0 | 16.0 | 0.02 | 0.02 | 0.02 | 60 | 1012.3 |
| 20260504201524 | 68 | 267 | 4.0 | 13.0 | 0.00 | 0.00 | 0.00 | 48 | 1011.7 |
| 20260504200029 | 70 | 237 | 4.0 | 13.0 | 0.00 | 0.00 | 0.00 | 44 | 1011.4 |
| 20260504194517 | 71 | 288 | 3.0 | 12.0 | 0.00 | 0.00 | 0.00 | 45 | 1011.3 |
| 20260504193021 | 71 | 277 | 7.0 | 13.0 | 0.00 | 0.00 | 0.00 | 41 | 1011.7 |
| 20260504191506 | 70 | 204 | 3.0 | 11.0 | 0.00 | 0.00 | 0.00 | 43 | 1011.6 |
| 20260504190006 | 68 | 273 | 11.0 | 20.0 | 0.00 | 0.00 | 0.00 | 46 | 1011.9 |
| 20260504184510 | 68 | 274 | 6.0 | 16.0 | 0.00 | 0.00 | 0.00 | 47 | 1011.9 |
| 20260504183015 | 68 | 224 | 7.0 | 12.0 | 0.00 | 0.00 | 0.00 | 45 | 1012.3 |
| 20260504181521 | 67 | 264 | 5.0 | 13.0 | 0.00 | 0.00 | 0.00 | 48 | 1012.5 |
| 20260504180004 | 67 | 275 | 4.0 | 16.0 | 0.00 | 0.00 | 0.00 | 48 | 1012.6 |
| 20260504174511 | 66 | 169 | 5.0 | 14.0 | 0.00 | 0.00 | 0.00 | 48 | 1012.7 |
| 20260504173012 | 67 | 304 | 6.0 | 15.0 | 0.00 | 0.00 | 0.00 | 47 | 1012.9 |
| 20260504171530 | 67 | 243 | 4.0 | 13.0 | 0.00 | 0.00 | 0.00 | 47 | 1013.1 |